Voltar ao catálogo

ONEWEB-0316

AtivoComunicaçõesPO
NORAD 49102·PAYLOAD·🇬🇧 United Kingdom

Lançado Aug 21, 2021 de Baikonur Cosmodrome

Loading…

Próximas Passagens (próximas 24 horas)

TLE

AtualizadoSource: CelesTrak SupGP

Época: Sep 14, 2026, 22:33 UTC

1 49102C 21075AD  26257.93977269  .00001419  00000+0  36026-2 0  2575
2 49102  87.9168 317.6245 0001815  99.1040 350.7888 13.18684690    19

Acompanhe ONEWEB-0316 em tempo real com AllMySat

Download on the App Store